Flag for U.S.A. Weather past 2 weeks in Springfield, Massachusetts, U.S.A.

Now
55 °F

Clear.


Feels Like: 55 °F
Forecast: 58 / 71 °F
Wind: No wind

Location: Barnes Municipal Airport

Current Time: Jul 4, 2015 at 3:18:41 AM

Latest Report: Jul 4, 2015 at 2:53 AM


Visibility: 10 mi

Pressure: 29.99 "Hg

Humidity: 93%

Dew point: 53 °F

Location of SpringfieldLocation

Historic Weather in Springfield — Graph

°F

Springfield temperature yesterday

Maximum temperature yesterday: 78 °F (at 2:53 PM)
Minimum temperature yesterday: 54 °F (at 3:53 AM)
Average temperature yesterday: 67 °F

Past Weeks' High & Low Weather Summary

 TemperatureHumidityPressure
High89 °F (Jun 23, 2:53 PM)97% (Jun 21, 6:55 AM)30.17 "Hg (Jun 21, 6:55 AM)
Low53 °F (Jun 20, 3:53 AM)36% (Jun 19, 2:53 PM)29.65 "Hg (Jun 21, 4:53 PM)
Average68 °F71%29.91 "Hg
* Reported Jun 19 1:53 AM — Jul 4 1:53 AM, Springfield, Weather by CustomWeather, © 2015

Note: Actual official high and low records may vary slightly from our data, if they occured in-between our weather recording intervals... More about our weather records

Advertising

Springfield weather history for previous 24 hours

 ConditionsComfort  
Time TempWeatherWind HumidityBarometerVisibility
1:53 AM
Sat, Jul 4
54 °FClear.No wind93%29.99 "Hg10 mi
12:53 AM57 °FClear.3 mph87%29.99 "Hg10 mi
11:53 PM
Fri, Jul 3
59 °FClear.No wind87%29.99 "Hg10 mi
10:53 PM59 °FClear.3 mph87%29.98 "Hg10 mi
9:53 PM63 °FClear.No wind87%29.97 "Hg10 mi
8:53 PM65 °FSunny.No wind78%29.96 "Hg10 mi
7:53 PM73 °FSunny.3 mph50%29.95 "Hg10 mi
6:53 PM77 °FSunny.8 mph40%29.95 "Hg10 mi
5:53 PM77 °FSunny.5 mph42%29.94 "Hg10 mi
4:53 PM78 °FSunny.6 mph40%29.95 "Hg10 mi
3:53 PM78 °FSunny.6 mph40%29.95 "Hg10 mi
2:53 PM78 °FPassing clouds.10 mph39%29.96 "Hg10 mi
1:53 PM76 °FPartly sunny.6 mph40%29.96 "Hg10 mi
12:53 PM76 °FSunny.5 mph39%29.97 "Hg10 mi
11:53 AM74 °FSunny.No wind41%29.98 "Hg10 mi
10:53 AM73 °FSunny.7 mph41%29.98 "Hg10 mi
9:53 AM71 °FSunny.9 mph45%29.98 "Hg10 mi
8:53 AM68 °FSunny.5 mph57%29.99 "Hg10 mi
7:53 AM63 °FSunny.6 mph65%29.97 "Hg10 mi
6:53 AM58 °FSunny.5 mph81%29.96 "Hg10 mi
5:53 AM55 °FClear.6 mph90%29.93 "Hg10 mi
4:53 AM55 °FClear.6 mph87%29.91 "Hg10 mi
3:53 AM54 °FClear.No wind90%29.90 "Hg10 mi
Weather by CustomWeather, © 2015

See weather overviewHow to use our weather pages